Location: 22
(39.7117°N, 89.5929°W)
Time: 03:52:50
(UTC-06:00)

Altair - Visible Passes

Search period start: 05 March 2024 00:00
Search period end: 15 March 2024 01:00
Orbit: 1501 x 1682 km, 47.2° (Epoch: 04 March)

Date Brightness Start Highest point End Pass type
(mag) Time Alt. Az. Time Alt. Az. Time Alt. Az.
05 Mar 9.5 04:49:40 10° S 04:55:49 20° SE 05:01:56 10° E visible
06 Mar 9.5 04:25:09 10° SSE 04:30:46 18° SE 04:36:20 10° E visible
07 Mar 9.5 04:00:46 10° SSE 04:05:43 16° SE 04:10:37 10° E visible
08 Mar 9.5 03:36:34 10° SSE 03:40:40 14° ESE 03:44:44 10° E visible
08 Mar 8.1 05:34:54 10° SW 05:43:47 56° SE 05:52:39 10° ENE visible
09 Mar 9.6 03:12:43 10° SE 03:15:37 12° ESE 03:18:31 10° ESE visible
09 Mar 8.2 05:09:51 10° SSW 05:18:40 51° SE 05:27:25 10° ENE visible
10 Mar 8.2 05:44:50 10° SSW 05:53:32 47° SE 06:02:09 10° ENE visible
11 Mar 8.3 05:20:24 12° SSW 05:28:26 44° SE 05:36:53 10° ENE visible
12 Mar 8.3 04:57:09 18° SSW 05:03:19 40° SE 05:11:37 10° ENE visible
13 Mar 8.4 04:33:47 24° S 04:38:12 37° SE 04:46:19 10° ENE visible
13 Mar 7.5 06:32:59 10° WSW 06:42:17 84° NNW 06:51:31 10° ENE visible
14 Mar 8.5 04:10:19 28° SSE 04:13:07 33° SE 04:21:00 10° ENE visible
14 Mar 7.5 06:08:22 12° WSW 06:17:05 88° NNW 06:26:18 10° ENE visible
